owner,sensor,date,latitude,longitude,air_pressure(mBar),qcFlag 
TABS,ioos:station:wmo:42045:1,2013-03-01T00:00:00Z,26.2168,-96.4998,1022.5,11111222 
TABS,ioos:station:wmo:42045:1,2013-03-01T00:30:00Z,26.2168,-96.4998,1022.79,11111222 
TABS,ioos:station:wmo:42045:1,2013-03-01T01:00:00Z,26.2168,-96.4998,1022.85,11111222 
TABS,ioos:station:wmo:42045:1,2013-03-01T01:30:00Z,26.2168,-96.4998,1022.97,11111222 
TABS,ioos:station:wmo:42045:1,2013-03-01T02:00:00Z,26.2168,-96.4998,1023.05,11111222 
TABS,ioos:station:wmo:42045:1,2013-03-01T02:30:00Z,26.2168,-96.4998,1023.32,11111222 
TABS,ioos:station:wmo:42045:1,2013-03-01T03:00:00Z,26.2168,-96.4998,1023.73,11111222 
TABS,ioos:station:wmo:42045:1,2013-03-01T03:30:00Z,26.2168,-96.4998,1023.75,11111222 
TABS,ioos:station:wmo:42045:1,2013-03-01T04:00:00Z,26.2168,-96.4998,1024.09,11111222 
TABS,ioos:station:wmo:42045:1,2013-03-01T04:30:00Z,26.2168,-96.4998,1024.27,11111222 
TABS,ioos:station:wmo:42045:1,2013-03-01T05:00:00Z,26.2168,-96.4998,1024.44,11111222 
TABS,ioos:station:wmo:42045:1,2013-03-01T05:30:00Z,26.2168,-96.4998,1024.55,11111222 
TABS,ioos:station:wmo:42045:1,2013-03-01T06:00:00Z,26.2168,-96.4998,1024.46,11111222 
TABS,ioos:station:wmo:42045:1,2013-03-01T06:30:00Z,26.2168,-96.4998,1024.48,11111222 
TABS,ioos:station:wmo:42045:1,2013-03-01T07:00:00Z,26.2168,-96.4998,1024.23,11111222 
TABS,ioos:station:wmo:42045:1,2013-03-01T07:30:00Z,26.2168,-96.4998,1024.22,11111222 
TABS,ioos:station:wmo:42045:1,2013-03-01T08:00:00Z,26.2168,-96.4998,1023.52,11111222 
TABS,ioos:station:wmo:42045:1,2013-03-01T08:30:00Z,26.2168,-96.4998,1023.48,11111222 
TABS,ioos:station:wmo:42045:1,2013-03-01T09:00:00Z,26.2168,-96.4998,1023.21,11111222 
TABS,ioos:station:wmo:42045:1,2013-03-01T09:30:00Z,26.2168,-96.4998,1022.97,11111222 
TABS,ioos:station:wmo:42045:1,2013-03-01T10:00:00Z,26.2168,-96.4998,1022.93,11111222 
TABS,ioos:station:wmo:42045:1,2013-03-01T10:30:00Z,26.2168,-96.4998,1022.85,11111222 
TABS,ioos:station:wmo:42045:1,2013-03-01T11:00:00Z,26.2168,-96.4998,1023.14,11111222 
TABS,ioos:station:wmo:42045:1,2013-03-01T11:30:00Z,26.2168,-96.4998,1023.34,11111222 
TABS,ioos:station:wmo:42045:1,2013-03-01T12:00:00Z,26.2168,-96.4998,1023.34,11111222 
TABS,ioos:station:wmo:42045:1,2013-03-01T12:30:00Z,26.2168,-96.4998,1023.72,11111222 
TABS,ioos:station:wmo:42045:1,2013-03-01T13:00:00Z,26.2168,-96.4998,1024.02,11111222 
TABS,ioos:station:wmo:42045:1,2013-03-01T13:30:00Z,26.2168,-96.4998,1024.5,11111222 
TABS,ioos:station:wmo:42045:1,2013-03-01T14:00:00Z,26.2168,-96.4998,1024.97,11111222 
TABS,ioos:station:wmo:42045:1,2013-03-01T14:30:00Z,26.2168,-96.4998,1025.13,11111222 
TABS,ioos:station:wmo:42045:1,2013-03-01T15:00:00Z,26.2168,-96.4998,1025.54,11111222 
TABS,ioos:station:wmo:42045:1,2013-03-01T15:30:00Z,26.2168,-96.4998,1025.62,11111222 
TABS,ioos:station:wmo:42045:1,2013-03-01T16:00:00Z,26.2168,-96.4998,1025.72,11111222 
TABS,ioos:station:wmo:42045:1,2013-03-01T16:30:00Z,26.2168,-96.4998,1025.61,11111222 
TABS,ioos:station:wmo:42045:1,2013-03-01T17:00:00Z,26.2168,-96.4998,1025.46,11111222 
TABS,ioos:station:wmo:42045:1,2013-03-01T17:30:00Z,26.2168,-96.4998,1025.45,11111222 
TABS,ioos:station:wmo:42045:1,2013-03-01T18:00:00Z,26.2168,-96.4998,1024.8,11111222 
TABS,ioos:station:wmo:42045:1,2013-03-01T18:30:00Z,26.2168,-96.4998,1024.59,11111222 
TABS,ioos:station:wmo:42045:1,2013-03-01T19:00:00Z,26.2168,-96.4998,1024.09,11111222 
TABS,ioos:station:wmo:42045:1,2013-03-01T19:30:00Z,26.2168,-96.4998,1023.68,11111222 
TABS,ioos:station:wmo:42045:1,2013-03-01T20:00:00Z,26.2168,-96.4998,1023.51,11111222 
TABS,ioos:station:wmo:42045:1,2013-03-01T20:30:00Z,26.2168,-96.4998,1023.08,11111222 
TABS,ioos:station:wmo:42045:1,2013-03-01T21:00:00Z,26.2168,-96.4998,1022.75,11111222 
TABS,ioos:station:wmo:42045:1,2013-03-01T21:30:00Z,26.2168,-96.4998,1022.73,11111222 
TABS,ioos:station:wmo:42045:1,2013-03-01T22:00:00Z,26.2168,-96.4998,1022.51,11111222 
TABS,ioos:station:wmo:42045:1,2013-03-01T22:30:00Z,26.2168,-96.4998,1022.48,11111222 
TABS,ioos:station:wmo:42045:1,2013-03-01T23:00:00Z,26.2168,-96.4998,1022.46,11111222 
TABS,ioos:station:wmo:42045:1,2013-03-01T23:30:00Z,26.2168,-96.4998,1022.42,11111222 
TABS,ioos:station:wmo:42045:1,2013-03-02T00:00:00Z,26.2168,-96.4998,1022.34,11111222 
TABS,ioos:station:wmo:42045:1,2013-03-02T00:30:00Z,26.2168,-96.4998,1022.4,11111222 
TABS,ioos:station:wmo:42045:1,2013-03-02T01:00:00Z,26.2168,-96.4998,1022.56,11111222 
TABS,ioos:station:wmo:42045:1,2013-03-02T01:30:00Z,26.2168,-96.4998,1022.67,11111222 
TABS,ioos:station:wmo:42045:1,2013-03-02T02:00:00Z,26.2168,-96.4998,1022.92,11111222 
TABS,ioos:station:wmo:42045:1,2013-03-02T02:30:00Z,26.2168,-96.4998,1022.9,11111222 
TABS,ioos:station:wmo:42045:1,2013-03-02T03:00:00Z,26.2168,-96.4998,1022.81,11111222 
TABS,ioos:station:wmo:42045:1,2013-03-02T03:30:00Z,26.2168,-96.4998,1022.82,11111222 
TABS,ioos:station:wmo:42045:1,2013-03-02T04:00:00Z,26.2168,-96.4998,1022.63,11111222 
TABS,ioos:station:wmo:42045:1,2013-03-02T04:30:00Z,26.2168,-96.4998,1022.57,11111222 
TABS,ioos:station:wmo:42045:1,2013-03-02T05:00:00Z,26.2168,-96.4998,1022.65,11111222 
TABS,ioos:station:wmo:42045:1,2013-03-02T05:30:00Z,26.2168,-96.4998,1022.48,11111222 
TABS,ioos:station:wmo:42045:1,2013-03-02T06:00:00Z,26.2168,-96.4998,1022.59,11111222 
TABS,ioos:station:wmo:42045:1,2013-03-02T06:30:00Z,26.2168,-96.4998,1022.59,11111222 
TABS,ioos:station:wmo:42045:1,2013-03-02T07:00:00Z,26.2168,-96.4998,1022.59,11111222 
TABS,ioos:station:wmo:42045:1,2013-03-02T07:30:00Z,26.2168,-96.4998,1023.56,11111222 
TABS,ioos:station:wmo:42045:1,2013-03-02T08:00:00Z,26.2168,-96.4998,1023.95,11111222 
TABS,ioos:station:wmo:42045:1,2013-03-02T08:30:00Z,26.2168,-96.4998,1024.27,11111222 
TABS,ioos:station:wmo:42045:1,2013-03-02T09:00:00Z,26.2168,-96.4998,1023.92,11111222 
TABS,ioos:station:wmo:42045:1,2013-03-02T09:30:00Z,26.2168,-96.4998,1023.73,11111222 
TABS,ioos:station:wmo:42045:1,2013-03-02T10:00:00Z,26.2168,-96.4998,1023.65,11111222 
TABS,ioos:station:wmo:42045:1,2013-03-02T10:30:00Z,26.2168,-96.4998,1023.8,11111222 
TABS,ioos:station:wmo:42045:1,2013-03-02T11:00:00Z,26.2168,-96.4998,1023.98,11111222 
TABS,ioos:station:wmo:42045:1,2013-03-02T11:30:00Z,26.2168,-96.4998,1024.01,11111222 
TABS,ioos:station:wmo:42045:1,2013-03-02T12:00:00Z,26.2168,-96.4998,1024.33,11111222 
TABS,ioos:station:wmo:42045:1,2013-03-02T12:30:00Z,26.2168,-96.4998,1024.95,11111222 
TABS,ioos:station:wmo:42045:1,2013-03-02T13:00:00Z,26.2168,-96.4998,1025.45,11111222 
TABS,ioos:station:wmo:42045:1,2013-03-02T13:30:00Z,26.2168,-96.4998,1025.73,11111222 
TABS,ioos:station:wmo:42045:1,2013-03-02T14:00:00Z,26.2168,-96.4998,1026.16,11111222 
TABS,ioos:station:wmo:42045:1,2013-03-02T14:30:00Z,26.2168,-96.4998,1026.86,11111222 
TABS,ioos:station:wmo:42045:1,2013-03-02T15:00:00Z,26.2168,-96.4998,1027.31,11111222 
TABS,ioos:station:wmo:42045:1,2013-03-02T15:30:00Z,26.2168,-96.4998,1027.22,11111222 
TABS,ioos:station:wmo:42045:1,2013-03-02T16:00:00Z,26.2168,-96.4998,1027.76,11111222 
TABS,ioos:station:wmo:42045:1,2013-03-02T16:30:00Z,26.2168,-96.4998,1027.84,11111222 
TABS,ioos:station:wmo:42045:1,2013-03-02T17:00:00Z,26.2168,-96.4998,1027.94,11111222 
TABS,ioos:station:wmo:42045:1,2013-03-02T17:30:00Z,26.2168,-96.4998,1028.15,11111222 
TABS,ioos:station:wmo:42045:1,2013-03-02T18:00:00Z,26.2168,-96.4998,1027.8,11111222 
TABS,ioos:station:wmo:42045:1,2013-03-02T18:30:00Z,26.2168,-96.4998,1027.56,11111222 
TABS,ioos:station:wmo:42045:1,2013-03-02T19:00:00Z,26.2168,-96.4998,1027.54,11111222 
TABS,ioos:station:wmo:42045:1,2013-03-02T19:30:00Z,26.2168,-96.4998,1026.74,11111222 
TABS,ioos:station:wmo:42045:1,2013-03-02T20:00:00Z,26.2168,-96.4998,1026.87,11111222 
TABS,ioos:station:wmo:42045:1,2013-03-02T20:30:00Z,26.2168,-96.4998,1026.93,11111222 
TABS,ioos:station:wmo:42045:1,2013-03-02T21:00:00Z,26.2168,-96.4998,1026.51,11111222 
TABS,ioos:station:wmo:42045:1,2013-03-02T21:30:00Z,26.2168,-96.4998,1026.23,11111222 
TABS,ioos:station:wmo:42045:1,2013-03-02T22:00:00Z,26.2168,-96.4998,1025.98,11111222 
TABS,ioos:station:wmo:42045:1,2013-03-02T22:30:00Z,26.2168,-96.4998,1025.69,11111222 
TABS,ioos:station:wmo:42045:1,2013-03-02T23:00:00Z,26.2168,-96.4998,1025.51,11111222 
TABS,ioos:station:wmo:42045:1,2013-03-02T23:30:00Z,26.2168,-96.4998,1025.53,11111222 
TABS,ioos:station:wmo:42045:1,2013-03-03T00:00:00Z,26.2168,-96.4998,1025.61,11111222 
TABS,ioos:station:wmo:42045:1,2013-03-03T00:30:00Z,26.2168,-96.4998,1025.87,11111222 
TABS,ioos:station:wmo:42045:1,2013-03-03T01:00:00Z,26.2168,-96.4998,1025.91,11111222 
TABS,ioos:station:wmo:42045:1,2013-03-03T01:30:00Z,26.2168,-96.4998,1026.08,11111222 
TABS,ioos:station:wmo:42045:1,2013-03-03T02:00:00Z,26.2168,-96.4998,1026.38,11111222 
TABS,ioos:station:wmo:42045:1,2013-03-03T02:30:00Z,26.2168,-96.4998,1026.35,11111222 
TABS,ioos:station:wmo:42045:1,2013-03-03T03:00:00Z,26.2168,-96.4998,1026.23,11111222 
TABS,ioos:station:wmo:42045:1,2013-03-03T03:30:00Z,26.2168,-96.4998,1026.47,11111222 
TABS,ioos:station:wmo:42045:1,2013-03-03T04:00:00Z,26.2168,-96.4998,1026.54,11111222 
TABS,ioos:station:wmo:42045:1,2013-03-03T04:30:00Z,26.2168,-96.4998,1026.64,11111222 
TABS,ioos:station:wmo:42045:1,2013-03-03T05:00:00Z,26.2168,-96.4998,1026.58,11111222 
TABS,ioos:station:wmo:42045:1,2013-03-03T05:30:00Z,26.2168,-96.4998,1026.28,11111222 
TABS,ioos:station:wmo:42045:1,2013-03-03T06:00:00Z,26.2168,-96.4998,1025.82,11111222 
TABS,ioos:station:wmo:42045:1,2013-03-03T06:30:00Z,26.2168,-96.4998,1025.66,11111222 
TABS,ioos:station:wmo:42045:1,2013-03-03T07:00:00Z,26.2168,-96.4998,1025.47,11111222 
TABS,ioos:station:wmo:42045:1,2013-03-03T07:30:00Z,26.2168,-96.4998,1025.38,11111222 
TABS,ioos:station:wmo:42045:1,2013-03-03T08:00:00Z,26.2168,-96.4998,1025.27,11111222 
TABS,ioos:station:wmo:42045:1,2013-03-03T08:30:00Z,26.2168,-96.4998,1025.12,11111222 
TABS,ioos:station:wmo:42045:1,2013-03-03T09:00:00Z,26.2168,-96.4998,1024.91,11111222 
TABS,ioos:station:wmo:42045:1,2013-03-03T09:30:00Z,26.2168,-96.4998,1024.66,11111222 
TABS,ioos:station:wmo:42045:1,2013-03-03T10:00:00Z,26.2168,-96.4998,1024.72,11111222 
TABS,ioos:station:wmo:42045:1,2013-03-03T10:30:00Z,26.2168,-96.4998,1024.51,11111222 
TABS,ioos:station:wmo:42045:1,2013-03-03T11:00:00Z,26.2168,-96.4998,1024.74,11111222 
TABS,ioos:station:wmo:42045:1,2013-03-03T11:30:00Z,26.2168,-96.4998,1024.81,11111222 
TABS,ioos:station:wmo:42045:1,2013-03-03T12:00:00Z,26.2168,-96.4998,1024.99,11111222 
TABS,ioos:station:wmo:42045:1,2013-03-03T12:30:00Z,26.2168,-96.4998,1024.91,11111222 
TABS,ioos:station:wmo:42045:1,2013-03-03T13:00:00Z,26.2168,-96.4998,1025.14,11111222 
TABS,ioos:station:wmo:42045:1,2013-03-03T13:30:00Z,26.2168,-96.4998,1025.59,11111222 
TABS,ioos:station:wmo:42045:1,2013-03-03T14:00:00Z,26.2168,-96.4998,1025.67,11111222 
TABS,ioos:station:wmo:42045:1,2013-03-03T14:30:00Z,26.2168,-96.4998,1025.94,11111222 
TABS,ioos:station:wmo:42045:1,2013-03-03T15:00:00Z,26.2168,-96.4998,1026.25,11111222 
TABS,ioos:station:wmo:42045:1,2013-03-03T15:30:00Z,26.2168,-96.4998,1026.38,11111222 
TABS,ioos:station:wmo:42045:1,2013-03-03T16:00:00Z,26.2168,-96.4998,1026.03,11111222 
TABS,ioos:station:wmo:42045:1,2013-03-03T16:30:00Z,26.2168,-96.4998,1025.77,11111222 
TABS,ioos:station:wmo:42045:1,2013-03-03T17:00:00Z,26.2168,-96.4998,1025.42,11111222 
TABS,ioos:station:wmo:42045:1,2013-03-03T17:30:00Z,26.2168,-96.4998,1025.01,11111222 
TABS,ioos:station:wmo:42045:1,2013-03-03T18:00:00Z,26.2168,-96.4998,1024.42,11111222 
TABS,ioos:station:wmo:42045:1,2013-03-03T18:30:00Z,26.2168,-96.4998,1023.71,11111222 
TABS,ioos:station:wmo:42045:1,2013-03-03T19:00:00Z,26.2168,-96.4998,1023.06,11111222 
TABS,ioos:station:wmo:42045:1,2013-03-03T19:30:00Z,26.2168,-96.4998,1022.9,11111222 
TABS,ioos:station:wmo:42045:1,2013-03-03T20:00:00Z,26.2168,-96.4998,1022.25,11111222 
TABS,ioos:station:wmo:42045:1,2013-03-03T20:30:00Z,26.2168,-96.4998,1021.71,11111222 
TABS,ioos:station:wmo:42045:1,2013-03-03T21:00:00Z,26.2168,-96.4998,1021.55,11111222 
TABS,ioos:station:wmo:42045:1,2013-03-03T21:30:00Z,26.2168,-96.4998,1021.03,11111222 
TABS,ioos:station:wmo:42045:1,2013-03-03T22:00:00Z,26.2168,-96.4998,1020.6,11111222 
TABS,ioos:station:wmo:42045:1,2013-03-03T22:30:00Z,26.2168,-96.4998,1020.32,11111222 
TABS,ioos:station:wmo:42045:1,2013-03-03T23:00:00Z,26.2168,-96.4998,1020.32,11111222 
TABS,ioos:station:wmo:42045:1,2013-03-03T23:30:00Z,26.2168,-96.4998,1020.05,11111222 
TABS,ioos:station:wmo:42045:1,2013-03-04T00:00:00Z,26.2168,-96.4998,1020.27,11111222 
TABS,ioos:station:wmo:42045:1,2013-03-04T00:30:00Z,26.2168,-96.4998,1020.13,11111222 
TABS,ioos:station:wmo:42045:1,2013-03-04T01:00:00Z,26.2168,-96.4998,1020.05,11111222 
TABS,ioos:station:wmo:42045:1,2013-03-04T01:30:00Z,26.2168,-96.4998,1019.94,11111222 
TABS,ioos:station:wmo:42045:1,2013-03-04T02:00:00Z,26.2168,-96.4998,1019.88,11111222 
TABS,ioos:station:wmo:42045:1,2013-03-04T02:30:00Z,26.2168,-96.4998,1019.78,11111222 
TABS,ioos:station:wmo:42045:1,2013-03-04T03:00:00Z,26.2168,-96.4998,1019.59,11111222 
TABS,ioos:station:wmo:42045:1,2013-03-04T03:30:00Z,26.2168,-96.4998,1019.43,11111222 
TABS,ioos:station:wmo:42045:1,2013-03-04T04:00:00Z,26.2168,-96.4998,1019.32,11111222 
TABS,ioos:station:wmo:42045:1,2013-03-04T04:30:00Z,26.2168,-96.4998,1019.18,11111222 
TABS,ioos:station:wmo:42045:1,2013-03-04T05:00:00Z,26.2168,-96.4998,1018.86,11111222 
TABS,ioos:station:wmo:42045:1,2013-03-04T05:30:00Z,26.2168,-96.4998,1018.6,11111222 
TABS,ioos:station:wmo:42045:1,2013-03-04T06:00:00Z,26.2168,-96.4998,1018.02,11111222 
TABS,ioos:station:wmo:42045:1,2013-03-04T06:30:00Z,26.2168,-96.4998,1017.76,11111222 
TABS,ioos:station:wmo:42045:1,2013-03-04T07:00:00Z,26.2168,-96.4998,1017.57,11111222 
TABS,ioos:station:wmo:42045:1,2013-03-04T07:30:00Z,26.2168,-96.4998,1016.9,11111222 
TABS,ioos:station:wmo:42045:1,2013-03-04T08:00:00Z,26.2168,-96.4998,1016.33,11111222 
TABS,ioos:station:wmo:42045:1,2013-03-04T08:30:00Z,26.2168,-96.4998,1016.01,11111222 
TABS,ioos:station:wmo:42045:1,2013-03-04T09:00:00Z,26.2168,-96.4998,1015.24,11111222 
TABS,ioos:station:wmo:42045:1,2013-03-04T09:30:00Z,26.2168,-96.4998,1015.08,11111222 
TABS,ioos:station:wmo:42045:1,2013-03-04T10:00:00Z,26.2168,-96.4998,1014.88,11111222 
TABS,ioos:station:wmo:42045:1,2013-03-04T10:30:00Z,26.2168,-96.4998,1014.88,11111222 
TABS,ioos:station:wmo:42045:1,2013-03-04T11:00:00Z,26.2168,-96.4998,1014.84,11111222 
TABS,ioos:station:wmo:42045:1,2013-03-04T11:30:00Z,26.2168,-96.4998,1015.01,11111222 
TABS,ioos:station:wmo:42045:1,2013-03-04T12:00:00Z,26.2168,-96.4998,1014.58,11111222 
TABS,ioos:station:wmo:42045:1,2013-03-04T12:30:00Z,26.2168,-96.4998,1014.92,11111222 
TABS,ioos:station:wmo:42045:1,2013-03-04T13:00:00Z,26.2168,-96.4998,1015.14,11111222 
TABS,ioos:station:wmo:42045:1,2013-03-04T13:30:00Z,26.2168,-96.4998,1015.29,11111222 
TABS,ioos:station:wmo:42045:1,2013-03-04T14:00:00Z,26.2168,-96.4998,1015.42,11111222 
TABS,ioos:station:wmo:42045:1,2013-03-04T14:30:00Z,26.2168,-96.4998,1015.57,11111222 
TABS,ioos:station:wmo:42045:1,2013-03-04T15:00:00Z,26.2168,-96.4998,1015.49,11111222 
TABS,ioos:station:wmo:42045:1,2013-03-04T15:30:00Z,26.2168,-96.4998,1015.37,11111222 
TABS,ioos:station:wmo:42045:1,2013-03-04T16:00:00Z,26.2168,-96.4998,1015.43,11111222 
TABS,ioos:station:wmo:42045:1,2013-03-04T16:30:00Z,26.2168,-96.4998,1014.76,11111222 
TABS,ioos:station:wmo:42045:1,2013-03-04T17:00:00Z,26.2168,-96.4998,1014.73,11111222 
TABS,ioos:station:wmo:42045:1,2013-03-04T17:30:00Z,26.2168,-96.4998,1014.48,11111222 
TABS,ioos:station:wmo:42045:1,2013-03-04T18:00:00Z,26.2168,-96.4998,1014.01,11111222 
TABS,ioos:station:wmo:42045:1,2013-03-04T18:30:00Z,26.2168,-96.4998,1013.41,11111222 
TABS,ioos:station:wmo:42045:1,2013-03-04T19:00:00Z,26.2168,-96.4998,1012.78,11111222 
TABS,ioos:station:wmo:42045:1,2013-03-04T19:30:00Z,26.2168,-96.4998,1011.74,11111222 
TABS,ioos:station:wmo:42045:1,2013-03-04T20:00:00Z,26.2168,-96.4998,1011.7,11111222 
TABS,ioos:station:wmo:42045:1,2013-03-04T20:30:00Z,26.2168,-96.4998,1011.12,11111222 
TABS,ioos:station:wmo:42045:1,2013-03-04T21:00:00Z,26.2168,-96.4998,1010.63,11111222 
TABS,ioos:station:wmo:42045:1,2013-03-04T21:30:00Z,26.2168,-96.4998,1010.72,11111222 
TABS,ioos:station:wmo:42045:1,2013-03-04T22:00:00Z,26.2168,-96.4998,1010.4,11111222 
TABS,ioos:station:wmo:42045:1,2013-03-04T22:30:00Z,26.2168,-96.4998,1010.26,11111222 
TABS,ioos:station:wmo:42045:1,2013-03-04T23:00:00Z,26.2168,-96.4998,1010.04,11111222 
TABS,ioos:station:wmo:42045:1,2013-03-04T23:30:00Z,26.2168,-96.4998,1010.46,11111222 
TABS,ioos:station:wmo:42045:1,2013-03-05T00:00:00Z,26.2168,-96.4998,1010.39,11111222 
TABS,ioos:station:wmo:42045:1,2013-03-05T00:30:00Z,26.2168,-96.4998,1010.13,11111222 
TABS,ioos:station:wmo:42045:1,2013-03-05T01:00:00Z,26.2168,-96.4998,1010.17,11111222 
TABS,ioos:station:wmo:42045:1,2013-03-05T01:30:00Z,26.2168,-96.4998,1010.73,11111222 
TABS,ioos:station:wmo:42045:1,2013-03-05T02:00:00Z,26.2168,-96.4998,1010.48,11111222 
TABS,ioos:station:wmo:42045:1,2013-03-05T02:30:00Z,26.2168,-96.4998,1011.14,11111222 
TABS,ioos:station:wmo:42045:1,2013-03-05T03:00:00Z,26.2168,-96.4998,1011.24,11111222 
TABS,ioos:station:wmo:42045:1,2013-03-05T03:30:00Z,26.2168,-96.4998,1011.41,11111222 
TABS,ioos:station:wmo:42045:1,2013-03-05T04:00:00Z,26.2168,-96.4998,1012.02,11111222 
TABS,ioos:station:wmo:42045:1,2013-03-05T04:30:00Z,26.2168,-96.4998,1012.01,11111222 
TABS,ioos:station:wmo:42045:1,2013-03-05T05:00:00Z,26.2168,-96.4998,1011.66,11111222 
TABS,ioos:station:wmo:42045:1,2013-03-05T05:30:00Z,26.2168,-96.4998,1011.73,11111222 
TABS,ioos:station:wmo:42045:1,2013-03-05T06:00:00Z,26.2168,-96.4998,1011.7,11111222 
TABS,ioos:station:wmo:42045:1,2013-03-05T06:30:00Z,26.2168,-96.4998,1011.74,11111222 
TABS,ioos:station:wmo:42045:1,2013-03-05T07:00:00Z,26.2168,-96.4998,1011.73,11111222 
TABS,ioos:station:wmo:42045:1,2013-03-05T07:30:00Z,26.2168,-96.4998,1011.15,11111222 
TABS,ioos:station:wmo:42045:1,2013-03-05T08:00:00Z,26.2168,-96.4998,1011.09,11111222 
TABS,ioos:station:wmo:42045:1,2013-03-05T08:30:00Z,26.2168,-96.4998,1010.84,11111222 
TABS,ioos:station:wmo:42045:1,2013-03-05T09:00:00Z,26.2168,-96.4998,1010.08,11111222 
TABS,ioos:station:wmo:42045:1,2013-03-05T09:30:00Z,26.2168,-96.4998,1010.24,11111222 
TABS,ioos:station:wmo:42045:1,2013-03-05T10:00:00Z,26.2168,-96.4998,1011.12,11111222 
TABS,ioos:station:wmo:42045:1,2013-03-05T10:30:00Z,26.2168,-96.4998,1011.43,11111222 
TABS,ioos:station:wmo:42045:1,2013-03-05T11:00:00Z,26.2168,-96.4998,1011.28,11111222 
TABS,ioos:station:wmo:42045:1,2013-03-05T11:30:00Z,26.2168,-96.4998,1011.6,11111222 
TABS,ioos:station:wmo:42045:1,2013-03-05T12:00:00Z,26.2168,-96.4998,1011.84,11111222 
TABS,ioos:station:wmo:42045:1,2013-03-05T12:30:00Z,26.2168,-96.4998,1012.39,11111222 
TABS,ioos:station:wmo:42045:1,2013-03-05T13:00:00Z,26.2168,-96.4998,1012.79,11111222 
TABS,ioos:station:wmo:42045:1,2013-03-05T13:30:00Z,26.2168,-96.4998,1012.8,11111222 
TABS,ioos:station:wmo:42045:1,2013-03-05T14:00:00Z,26.2168,-96.4998,1013.39,11111222 
TABS,ioos:station:wmo:42045:1,2013-03-05T14:30:00Z,26.2168,-96.4998,1013.91,11111222 
TABS,ioos:station:wmo:42045:1,2013-03-05T15:00:00Z,26.2168,-96.4998,1014.4,11111222 
TABS,ioos:station:wmo:42045:1,2013-03-05T15:30:00Z,26.2168,-96.4998,1018.59,11111222 
TABS,ioos:station:wmo:42045:1,2013-03-05T16:00:00Z,26.2168,-96.4998,1018.13,11111222 
TABS,ioos:station:wmo:42045:1,2013-03-05T16:30:00Z,26.2168,-96.4998,1018.83,11111222 
TABS,ioos:station:wmo:42045:1,2013-03-05T17:00:00Z,26.2168,-96.4998,1018.98,11111222 
TABS,ioos:station:wmo:42045:1,2013-03-05T17:30:00Z,26.2168,-96.4998,1018.96,11111222 
TABS,ioos:station:wmo:42045:1,2013-03-05T18:00:00Z,26.2168,-96.4998,1018.89,11111222 
TABS,ioos:station:wmo:42045:1,2013-03-05T18:30:00Z,26.2168,-96.4998,1019.39,11111222 
TABS,ioos:station:wmo:42045:1,2013-03-05T19:00:00Z,26.2168,-96.4998,1019.51,11111222 
TABS,ioos:station:wmo:42045:1,2013-03-05T19:30:00Z,26.2168,-96.4998,1019.75,11111222 
TABS,ioos:station:wmo:42045:1,2013-03-05T20:00:00Z,26.2168,-96.4998,1019.9,11111222 
TABS,ioos:station:wmo:42045:1,2013-03-05T20:30:00Z,26.2168,-96.4998,1019.59,11111222 
TABS,ioos:station:wmo:42045:1,2013-03-05T21:00:00Z,26.2168,-96.4998,1020.54,11111222 
TABS,ioos:station:wmo:42045:1,2013-03-05T21:30:00Z,26.2168,-96.4998,1020.07,11111222 
TABS,ioos:station:wmo:42045:1,2013-03-05T22:00:00Z,26.2168,-96.4998,1020.65,11111222 
TABS,ioos:station:wmo:42045:1,2013-03-05T22:30:00Z,26.2168,-96.4998,1020.34,11111222 
TABS,ioos:station:wmo:42045:1,2013-03-05T23:00:00Z,26.2168,-96.4998,1021.05,11111222 
TABS,ioos:station:wmo:42045:1,2013-03-05T23:30:00Z,26.2168,-96.4998,1021.66,11111222 
TABS,ioos:station:wmo:42045:1,2013-03-06T00:00:00Z,26.2168,-96.4998,1021.5,11111222 
TABS,ioos:station:wmo:42045:1,2013-03-06T00:30:00Z,26.2168,-96.4998,1022.56,11111222 
TABS,ioos:station:wmo:42045:1,2013-03-06T01:00:00Z,26.2168,-96.4998,1022.53,11111222 
TABS,ioos:station:wmo:42045:1,2013-03-06T01:30:00Z,26.2168,-96.4998,1022.61,11111222 
TABS,ioos:station:wmo:42045:1,2013-03-06T02:00:00Z,26.2168,-96.4998,1023.63,11111222 
TABS,ioos:station:wmo:42045:1,2013-03-06T02:30:00Z,26.2168,-96.4998,1023.52,11111222 
TABS,ioos:station:wmo:42045:1,2013-03-06T03:00:00Z,26.2168,-96.4998,1024.14,11111222 
TABS,ioos:station:wmo:42045:1,2013-03-06T03:30:00Z,26.2168,-96.4998,1024.3,11111222 
TABS,ioos:station:wmo:42045:1,2013-03-06T04:00:00Z,26.2168,-96.4998,1024.48,11111222 
TABS,ioos:station:wmo:42045:1,2013-03-06T04:30:00Z,26.2168,-96.4998,1024.47,11111222 
TABS,ioos:station:wmo:42045:1,2013-03-06T05:00:00Z,26.2168,-96.4998,1024.76,11111222 
TABS,ioos:station:wmo:42045:1,2013-03-06T05:30:00Z,26.2168,-96.4998,1024.66,11111222 
TABS,ioos:station:wmo:42045:1,2013-03-06T06:00:00Z,26.2168,-96.4998,1024.62,11111222 
TABS,ioos:station:wmo:42045:1,2013-03-06T06:30:00Z,26.2168,-96.4998,1024.68,11111222 
TABS,ioos:station:wmo:42045:1,2013-03-06T07:00:00Z,26.2168,-96.4998,1024.72,11111222 
TABS,ioos:station:wmo:42045:1,2013-03-06T07:30:00Z,26.2168,-96.4998,1024.8,11111222 
TABS,ioos:station:wmo:42045:1,2013-03-06T08:00:00Z,26.2168,-96.4998,1024.69,11111222 
TABS,ioos:station:wmo:42045:1,2013-03-06T08:30:00Z,26.2168,-96.4998,1024.31,11111222 
TABS,ioos:station:wmo:42045:1,2013-03-06T09:00:00Z,26.2168,-96.4998,1024.52,11111222 
TABS,ioos:station:wmo:42045:1,2013-03-06T09:30:00Z,26.2168,-96.4998,1024.38,11111222 
TABS,ioos:station:wmo:42045:1,2013-03-06T10:00:00Z,26.2168,-96.4998,1024.75,11111222 
TABS,ioos:station:wmo:42045:1,2013-03-06T10:30:00Z,26.2168,-96.4998,1025.14,11111222 
TABS,ioos:station:wmo:42045:1,2013-03-06T11:00:00Z,26.2168,-96.4998,1025.59,11111222 
TABS,ioos:station:wmo:42045:1,2013-03-06T11:30:00Z,26.2168,-96.4998,1025.96,11111222 
TABS,ioos:station:wmo:42045:1,2013-03-06T12:00:00Z,26.2168,-96.4998,1026.06,11111222 
TABS,ioos:station:wmo:42045:1,2013-03-06T12:30:00Z,26.2168,-96.4998,1026.3,11111222 
TABS,ioos:station:wmo:42045:1,2013-03-06T13:00:00Z,26.2168,-96.4998,1026.6,11111222 
TABS,ioos:station:wmo:42045:1,2013-03-06T13:30:00Z,26.2168,-96.4998,1026.82,11111222 
TABS,ioos:station:wmo:42045:1,2013-03-06T14:00:00Z,26.2168,-96.4998,1027.06,11111222 
TABS,ioos:station:wmo:42045:1,2013-03-06T14:30:00Z,26.2168,-96.4998,1027.14,11111222 
TABS,ioos:station:wmo:42045:1,2013-03-06T15:00:00Z,26.2168,-96.4998,1027.35,11111222 
TABS,ioos:station:wmo:42045:1,2013-03-06T15:30:00Z,26.2168,-96.4998,1027.68,11111222 
TABS,ioos:station:wmo:42045:1,2013-03-06T16:00:00Z,26.2168,-96.4998,1027.65,11111222 
TABS,ioos:station:wmo:42045:1,2013-03-06T16:30:00Z,26.2168,-96.4998,1028.05,11111222 
TABS,ioos:station:wmo:42045:1,2013-03-06T17:00:00Z,26.2168,-96.4998,1027.82,11111222 
TABS,ioos:station:wmo:42045:1,2013-03-06T17:30:00Z,26.2168,-96.4998,1027.71,11111222 
TABS,ioos:station:wmo:42045:1,2013-03-06T18:00:00Z,26.2168,-96.4998,1027.38,11111222 
TABS,ioos:station:wmo:42045:1,2013-03-06T18:30:00Z,26.2168,-96.4998,1026.91,11111222 